This is the latest recevied weather packets stored in our database for station/object KF5VOI. If no packets are shown the sender has not sent any weather packets the latest 10 day(s).
| Time | Temp. | Humidity | Pressure | Rain* | Wind** | Luminosity | Snow |
|---|---|---|---|---|---|---|---|
| 1777661714 | 19.44° C | 99% | 1011.4 hPa | 0.76 mm | - | - | - |
| 1777659914 | 19.44° C | 99% | 1012.3 hPa | 0.51 mm | - | - | - |
| 1777658114 | 19.44° C | 99% | 1012.6 hPa | 0 mm | - | - | - |
| 1777656314 | 20.56° C | 99% | 1013.6 hPa | 0 mm | - | - | - |
| 1777654514 | 21.11° C | 99% | 1013.6 hPa | 0 mm | - | - | - |
| 1777652714 | 21.11° C | 99% | 1014.2 hPa | 0 mm | - | - | - |
| 1777650914 | 20° C | 99% | 1015.2 hPa | 0 mm | - | - | - |
| 1777649114 | 20.56° C | 99% | 1014.7 hPa | 0 mm | - | - | - |
| 1777647314 | 21.11° C | 99% | 1014.3 hPa | 0 mm | - | - | - |
| 1777645514 | 21.67° C | 99% | 1013.3 hPa | 0 mm | - | - | - |
| 1777643714 | 21.11° C | 99% | 1013.6 hPa | 0 mm | - | - | - |
| 1777641914 | 20.56° C | 99% | 1013.9 hPa | 0 mm | - | - | - |
| 1777640114 | 20° C | 99% | 1012.9 hPa | 0 mm | - | - | - |
| 1777638314 | 20° C | 99% | 1013.1 hPa | 0 mm | - | - | - |
| 1777636514 | 20° C | 99% | 1013.8 hPa | 0 mm | - | - | - |
| 1777634714 | 20° C | 99% | 1013.3 hPa | 0 mm | - | - | - |
| 1777632914 | 20° C | 99% | 1012.7 hPa | 0 mm | - | - | - |
| 1777631114 | 20° C | 99% | 1012.7 hPa | 0 mm | - | - | - |
| 1777629314 | 20° C | 99% | 1012.2 hPa | 0 mm | - | - | - |
| 1777627514 | 20.56° C | 99% | 1013.1 hPa | 0 mm | - | - | - |
| 1777625714 | 20.56° C | 99% | 1012.6 hPa | 0 mm | - | - | - |
| 1777623914 | 20.56° C | 99% | 1012.6 hPa | 0 mm | - | - | - |
| 1777622114 | 20.56° C | 99% | 1012.7 hPa | 0 mm | - | - | - |
| 1777620314 | 21.67° C | 99% | 1013.1 hPa | 0 mm | - | - | - |
| 1777618514 | 21.67° C | 99% | 1013.1 hPa | 0 mm | - | - | - |
* Rain latest hour (hover to see other rain measurements)
** Current wind speed in m/s (hover to see current wind gust speed)